Regional Weather Roundup
Issued by NWS Cleveland, OH

Home | Current Version | Previous Version | Text Only | Print | Product List | Glossary Off
Versions: 1 2 3 4 5 6 7 8 9 10 11 12 13 14 15 16 17 18 19 20 21 22 23 24 25 26 27 28 29 30 31 32 33 34 35 36 37 38 39 40 41 42 43 44 45 46 47 48 49 50

000
ASUS41 KCLE 230800
RWRCLE
OHIO REGIONAL WEATHER ROUNDUP
NATIONAL WEATHER SERVICE WILMINGTON, OH
400 AM EDT TUE SEP 23 2014

NOTE: "FAIR" INDICATES FEW OR NO CLOUDS BELOW 12,000 FEET WITH NO
SIGNIFICANT WEATHER AND/OR OBSTRUCTIONS TO VISIBILITY.

OHZ001>008-015>018-024>027-034-035-043-044-230900-
   NORTHWEST OHIO

CITY           SKY/WX    TMP DP  RH WIND       PRES   REMARKS
DEFIANCE       PTCLDY   N/A N/A N/A CALM      30.29S
FINDLAY        CLEAR     44  41  89 CALM      30.28S
TOLEDO EXPRESS CLEAR     43  42  97 CALM      30.29S
TOLEDO METCALF CLEAR     46  42  86 CALM      30.30S
LIMA           CLEAR     45  42  89 S5        30.29S
$$

OHZ009>014-019>023-028>033-038-089-230900-
   NORTHEAST OHIO

CITY           SKY/WX    TMP DP  RH WIND       PRES   REMARKS
CLE-HOPKINS    CLEAR     43  41  93 CALM      30.31R
CLE-LAKEFRONT  CLEAR     48  42  80 S7        30.28R
CUY CO. ARPT   NOT AVBL
LORAIN-ELYRIA  CLEAR     47  41  80 S3        30.29F
ASHTABULA      CLEAR     41  39  93 CALM      30.29S
AKRON-CANTON   CLEAR     45  40  82 CALM      30.29S
WOOSTER        NOT AVBL
MANSFIELD      CLEAR     42  41  96 S3        30.29S
YOUNGSTOWN     CLEAR     40  39  97 CALM      30.28S
$$

OHZ042-051>053-060>062-070>072-077>081-230900-
  SOUTHWEST OHIO

CITY           SKY/WX    TMP DP  RH WIND       PRES   REMARKS
CINC-COVINGTON CLEAR     49  42  77 CALM      30.28F
CINC-LUNKEN    CLEAR     42  41  96 NE3       30.30F
HAMILTON       CLEAR     41  40  96 CALM      30.31R
DAYTON         NOT AVBL
WRIGHT-PAT AFB NOT AVBL
DAYTON GENERAL CLEAR     43  41  93 NE5       30.28S
WILMINGTON     CLEAR     40  38  93 CALM      30.29S
$$

OHZ036-037-039>041-045>050-054>059-063>069-073>076-082>088-230900-
  CENTRAL AND SOUTHEAST OHIO

CITY           SKY/WX    TMP DP  RH WIND       PRES   REMARKS
COLUMBUS       CLEAR     47  40  76 CALM      30.29S
OSU AIRPORT    CLEAR     44  42  93 CALM      30.29S
BOLTON FIELD   NOT AVBL
RICKENBACK AFB NOT AVBL
NEWARK         CLEAR     37  36  96 CALM      30.30S FOG
MARION         CLEAR     43  40  89 S5        30.29S
LANCASTER      CLEAR     38  36  92 CALM      30.30S
ZANESVILLE     CLEAR     40  37  89 CALM      30.30S
NEW PHILLY     FOG       42  41  96 CALM      30.31S VSB 1/4
$$



USA.gov is the U.S. government's official web portal to all federal, state and local government web resources and services.